Retour au catalogue

SPIN 2

ActifScienceSSO
NORAD 66690·PAYLOAD·🇱🇺 Luxembourg
Ce nom de satellite n'a pas encore été confirmé par des sources officielles.

Lancé Nov 28, 2025 depuis Vandenberg Space Force Base

Loading…

Prochains Passages (prochaines 24 heures)

TLE

FraisSource: Space-Track

Époque: Sep 14, 2026, 04:29 UTC

1 66690U 25276AA  26257.18704743  .00003013  00000-0  14432-3 0  9999
2 66690  97.4108 328.9207 0006010  59.8596 300.3234 15.19686271 43927

Suivez SPIN 2 en temps réel avec AllMySat

Download on the App Store